Regional Weather Roundup
Issued by NWS

Home | Current Version | Previous Version | Text Only | Print | Product List | Glossary Off
Versions: 1 2 3 4 5 6 7 8 9 10 11 12 13 14 15 16 17 18 19 20 21 22 23 24 25 26 27 28 29 30 31 32 33 34 35 36 37 38 39 40 41 42 43 44 45 46 47 48 49 50

000
ASUS45 KBOU 290007
RWRCO

WEATHER ROUNDUP FOR COLORADO
NATIONAL WEATHER SERVICE DENVER/BOULDER CO
600 PM MDT MON JUL 28 2014

NOTE: "FAIR" INDICATES FEW OR NO CLOUDS BELOW 12000 FEET WITH NO
SIGNIFICANT WEATHER AND/OR OBSTRUCTIONS TO VISIBILITY.

COZ001>005-013-030-031-290100-
...NORTHWEST COLORADO...

CITY           SKY/WX    TMP DP  RH WIND       PRES   REMARKS
CRAIG          CLOUDY    73  48  41 SW15      30.27R
HAYDEN         CLOUDY    81  45  28 SW13      30.28S
MEEKER         CLOUDY    69  51  52 CALM      30.32F
MOUNT WERNER   NOT AVBL
STEAMBOAT SPGS CLOUDY    74  45  36 E7        30.31S
WALDEN         PTSUNNY   73  36  25 E12G20    30.41F
$$

COZ006>008-011-290100-
...WEST CENTRAL VALLEYS...

CITY           SKY/WX    TMP DP  RH WIND       PRES   REMARKS
GRAND JUNCTION PTSUNNY   84  52  33 W8        30.18F
MONTROSE       PTSUNNY   84  48  28 N7        30.26F
EAGLE          CLOUDY    70  52  52 SW7       30.38R
RIFLE          LGT RAIN  71  55  56 E20G29    30.28R
DELTA          PTSUNNY   88  46  23 S5        30.21F
NUCLA          PTSUNNY   81  45  28 N5        30.30F
$$

COZ017>023-064>068-290100-
...SOUTHWEST COLORADO...

CITY           SKY/WX    TMP DP  RH WIND       PRES   REMARKS
DURANGO        CLOUDY    68  54  60 SE10G21   30.39R
CORTEZ         SUNNY     75  53  46 NE14      30.29S
PAGOSA SPRINGS TSTM      63  54  72 CALM      30.48S
TELLURIDE      PTSUNNY   64  52  63 SW5       30.51F THUNDER
WOLF CREEK PAS NOT AVBL
$$

COZ009-010-012-014-032>034-037-058>063-290100-
...CENTRAL COLORADO...

CITY           SKY/WX    TMP DP  RH WIND       PRES   REMARKS
ASPEN          LGT RAIN  58  54  86 S6        30.50F
BUENA VISTA    CLOUDY    58  53  84 CALM      30.55S
COPPER MTN     TSTM      48  41  76 S24       30.78F
BERTHOUD PASS  CLOUDY    43  30  61 MISG      30.83R
COTTONWOOD PAS CLOUDY    54  52  94 SE6       30.66F
GUNNISON       CLOUDY    63  52  67 N8G23     30.47S THUNDER
KREMMLING      CLOUDY    73  41  31 SE12G23   30.39R
LEADVILLE      LGT RAIN  50  48  93 NW3       30.65R
MONARCH PASS   FOG       45  43  93 NE25      30.84F VSB<1/4
SALIDA         CLOUDY    60  57  89 SW3       30.59S
SUNLIGHT       CLOUDY    52  48  87 NE7       30.68F THUNDER
WILKERSON PASS CLOUDY    45  43  93 NE7       30.76F
$$

COZ069>075-290100-
...SAN LUIS VALLEY/SANGRE DE CRISTO MOUNTAINS...

CITY           SKY/WX    TMP DP  RH WIND       PRES   REMARKS
ALAMOSA        PTSUNNY   71  52  50 S18       30.39F
LA VETA PASS   CLOUDY    54  45  71 NE5       30.63S THUNDER
SAGUACHE       CLOUDY    68  52  56 NW7       30.45S
$$

COZ035-036-038>040-290100-
...NORTHERN COLORADO FRONT RANGE...

CITY           SKY/WX    TMP DP  RH WIND       PRES   REMARKS
DENVER INTL AP CLOUDY    76  57  51 S18       30.27F
DMNS CITY PARK   N/A     76  60  57 SW2       30.27F
AURORA         PTSUNNY   73  60  64 S14       30.31F
FRONT RANGE AP NOT AVBL
ERIE MUNI ARPT CLOUDY    76  47  35 SE10      30.25F
BOULDER MUN AP CLOUDY    79  57  47 SE8       30.26
CENTENNIAL     CLOUDY    72  59  63 SW12      30.31F
BROOMFIELD     RAIN      75  48  38 E8G21     30.31S
FORT COLLINS   PTSUNNY   82  55  39 S18       30.21F
LONGMONT       PTSUNNY   82  54  38 S9G16     30.25F
$$

COZ041-046-047-076>085-087-088-290100-
...PIKES PEAK/PALMER DIVIDE AND SOUTHERN FOOTHILLS...

CITY           SKY/WX    TMP DP  RH WIND       PRES   REMARKS
COLO. SPRINGS  CLOUDY    70  59  68 SE7       30.38F
A. F. ACADEMY  CLOUDY    67  60  77 S5        30.39F
ELLICOTT       CLOUDY    70  58  65 SE3       30.36F
FALCON         CLOUDY    66  57  72 S5        30.43F
FORT CARSON    CLOUDY    69  61  74 E2        30.35F
LIMON          CLOUDY    75  54  47 S15G22    30.31F
MONUMENT HILL  CLOUDY    63  57  82 S7        30.41F
TRINIDAD       CLOUDY    75  60  59 W10       30.31S
$$

COZ042>045-048>051-090-091-290100-
...NORTHEAST COLORADO...

CITY           SKY/WX    TMP DP  RH WIND       PRES   REMARKS
GREELEY ARPT   PTSUNNY   82  61  47 S14G25    30.22F
AKRON          CLOUDY    82  52  35 SE18G26   30.23F
BURLINGTON     PTSUNNY   79  52  38 S10       30.26F
WRAY             N/A     86  51  29 S10       30.21F
STERLING       CLOUDY    81  61  50 S7        30.19F
HOLYOKE        PTSUNNY   84  55  37 SE7       30.21S
FORT MORGAN    CLOUDY    86  52  30 S12G21    30.21F
$$

COZ086-089-092>099-290100-
...SOUTHEAST COLORADO...

CITY           SKY/WX    TMP DP  RH WIND       PRES   REMARKS
PUEBLO         CLOUDY    78  61  55 NE5       30.26F
LA JUNTA       PTSUNNY   80  62  54 SE12      30.23S
LAMAR          SUNNY     80  59  48 S18       30.22F
SPRINGFIELD      N/A     71  60  68 S18       30.29F
$$



USA.gov is the U.S. government's official web portal to all federal, state and local government web resources and services.